Location: Black Forest
(43.4794°N, 75.0081°W)
Time: 23:15:52
(UTC-05:00)

ISS - Visible Passes

Search period start: 28 January 2015 00:00
Search period end: 07 February 2015 00:00
Orbit: 402 x 410 km, 51.6° (Epoch: 28 January)

Date Brightness Start Highest point End Pass type
(mag) Time Alt. Az. Time Alt. Az. Time Alt. Az.
28 Jan -0.3 04:49:21 13° SE 04:49:21 13° SE 04:49:44 10° SE visible
03 Feb -0.6 19:25:39 10° SSW 19:26:07 13° SSW 19:26:07 13° SSW visible
04 Feb -1.6 18:34:26 10° S 18:36:48 19° SE 18:36:48 19° SE visible
05 Feb -2.2 19:17:49 10° SW 19:20:04 41° SW 19:20:04 41° SW visible
06 Feb -2.8 18:26:01 10° SW 18:29:08 44° SE 18:30:32 26° E visible
06 Feb 0.0 20:02:42 10° W 20:03:14 13° W 20:03:14 13° W visible
